Flag for Germany Weather past 2 weeks in Ingolstadt, Bavaria, Germany

Now
34 °F

Passing clouds.


Feels Like: 31 °F
Forecast: 27 / 54 °F
Wind: 3 mph from West

Location: Ingolstadt Airport


UV Index: 3 (Moderate)

Visibility: N/A


Pressure: 30.33 "Hg

Humidity: 93%

Dew point: 32 °F

Location of IngolstadtLocation

Historic Weather in Ingolstadt

°F

Ingolstadt temperature yesterday

Maximum temperature yesterday: 45 °F (at 4:00 PM)
Minimum temperature yesterday: 36 °F (at 5:20 AM)
Average temperature yesterday: 41 °F

Past Weeks' High & Low Weather Summary

 TemperatureHumidityPressure
High70 °F (Apr 2, 4:20 PM)100% (Apr 1, 7:20 AM)30.33 "Hg (Apr 1, 7:20 AM)
Low32 °F (Apr 16, 5:20 AM)29% (Apr 3, 3:20 PM)29.68 "Hg (Apr 3, 2:20 PM)
Average51 °F70%30.00 "Hg
* Reported Apr 1 6:20 AM — Apr 16 6:20 AM, Ingolstadt, Weather by CustomWeather, © 2014

Note: Actual official high and low records may vary slightly from our data, if they occured in-between our weather recording intervals... More about our weather records

Advertising

Historic Weather Conditions — Data for Previous 24 hours

 ConditionsComfort  
Time TempWeatherWind HumidityBarometerVisibility
6:20 AM
Apr 16
34 °FPassing clouds.3 mph93%30.33 "HgN/A
5:20 AM32 °FPassing clouds.5 mph87%30.30 "HgN/A
4:20 AM34 °FChilly.3 mph93%30.30 "Hg3 mi
3:20 AM36 °FChilly.2 mph87%30.27 "Hg4 mi
2:20 AM36 °FChilly.5 mph87%30.27 "Hg4 mi
12:20 AM39 °FChilly.5 mph70%30.27 "Hg4 mi
11:20 PM
Apr 15
41 °FQuite cool.5 mph66%30.27 "Hg4 mi
10:20 PM41 °FQuite cool.6 mph66%30.24 "Hg4 mi
9:20 PM41 °FQuite cool.7 mph61%30.24 "Hg4 mi
8:20 PM43 °FQuite cool.8 mph57%30.21 "Hg4 mi
7:20 PM43 °FQuite cool.10 mph57%30.21 "Hg4 mi
6:20 PM43 °FMore clouds than sun.9 mph57%30.21 "HgN/A
5:20 PM45 °FBroken clouds.13 mph53%30.21 "HgN/A
4:20 PM45 °FBroken clouds.13 mph57%30.21 "HgN/A
4:00 PM45 °FPartly sunny.13 mph53%30.21 "HgN/A
3:20 PM43 °FPartly sunny.10 mph61%30.21 "HgN/A
2:20 PM43 °FMore clouds than sun.15 mph61%30.21 "HgN/A
1:20 PM43 °FOvercast.8 mph66%30.21 "HgN/A
12:20 PM41 °FBroken clouds.13 mph70%30.21 "HgN/A
11:20 AM39 °FScattered showers. Broken clouds.9 mph75%30.18 "Hg5 mi
11:03 AM41 °FSprinkles. Broken clouds.10 mph70%30.18 "Hg3 mi
10:20 AM39 °FBroken clouds.12 mph75%30.18 "HgN/A
9:20 AM39 °FBroken clouds.10 mph75%30.18 "HgN/A
8:20 AM37 °FPartly sunny.8 mph81%30.15 "HgN/A
7:20 AM36 °FPassing clouds.7 mph87%30.15 "HgN/A
Weather by CustomWeather, © 2014

See weather overview